www.pogodaiklimat.ru

Погода и климат >> Архив погоды >> Антарктида >> Novolazarevskaja


ПОГОДА в Novolazarevskaja

  • Прогноз погоды в Novolazarevskaja
  • Монитор погоды в Novolazarevskaja
  • Климат города

АРХИВ ПОГОДЫ в Novolazarevskaja

Время (UTC), дата Ветер
(напр.,м/с)
 
Видим.   Явления Облачность Т
(С)
Тd
(С)
f
(%)
Тe
(С)
Тes
(С)
Комфортность P
(гПа)
Po
(гПа)
Тmin
(С)
Tmax
(С)
R
(мм)
R24
(мм)
S
(см)
18 16.06 ЮВ 6
{8}
20 км 4/0
[Ci fib]
-11.4 -27.5 25 -20 -20 1007.8 992.1 -10.9
00 17.06 ЮВ 6
{9}
20 км 6/0
[Ci fib]
-11.8 -25.3 32 -21 -21 1007.6 991.9
06 17.06 ЮВ 9
{11}
20 км 8/0
[Ac trans Ci fib]
-10.4 -26.1 26 -20 -20 1008.0 992.3 -12.2
12 17.06 ЮВ 9
{11}
20 км 10/0
[Cs]
-9.8 -25.7 26 -19 -19 1006.6 991.0
18 17.06 ЮВ 8
{11}
20 км 8/0
[Ci fib]
-9.4 -24.2 29 -19 -19 1006.8 991.2 -9.0
00 18.06 ЮВ 7
{14}
20 км 4/0
[Ci fib]
-8.7 -21.3 35 -17 -17 1009.8 994.2
06 18.06 ЮВ 7
{9}
20 км 8/4 600 м
[Sc Ci fib]
-6.9 -18.0 41 -15 -15 1009.1 993.6 -10.0
12 18.06 ЮВ 6
{8}
20 км 9/3 600 м
[Sc Ac trans]
-6.5 -16.2 46 -14 -14 1008.5 993.1
18 18.06 Ю 7
{8}
20 км 6/1 1000 м
[Sc Ac trans Ci fib]
-9.1 -20.3 40 -18 -18 1006.0 990.4 -6.2
00 19.06 Ю 6
{8}
20 км 6/0
[Ac trans Ci fib]
-10.1 -22.5 35 -18 -18 1003.8 988.2
06 19.06 Ю 8
{9}
20 км 3/0
[Ci fib]
-11.6 -25.4 31 -21 -21 999.0 983.4 -12.4
12 19.06 Ю 9
{10}
20 км 8/0
[Ac trans Ci fib]
-11.5 -26.4 28 -22 -22 995.2 979.7
18 19.06 Ю 6
{10}
20 км 8/0
[Ac trans Ci fib]
-10.6 -23.6 33 -19 -19 992.6 977.2 -10.3
00 20.06 Ю 6
{10}
20 км 6/0
[Ac trans Ci fib]
-11.5 -21.5 43 -20 -20 991.2 975.7
06 20.06 В 4
{7}
20 км 6/0
[Ac trans Ci fib]
-11.8 -18.8 56 -19 -19 991.2 975.7 -13.2
18 20.06 ЮВ 5
{8}
20 км 6/0
[Ac trans Ci fib]
-14.0 -26.5 34 -22 -22 994.4 978.7 -11.8
00 21.06 ЮВ 6
{7}
20 км 3/0
[Ac trans Ci fib]
-15.4 -28.7 31 -25 -25 996.7 980.9
06 21.06 ЮВ 6
{7}
20 км ясно -17.3 -31.0 29 -27 -27 999.1 983.2 -17.4
12 21.06 ЮВ 4
{8}
20 км 1/0
[Ac trans]
-18.3 -32.7 27 -27 -27 1002.2 986.1
18 21.06 ЮВ 4
{6}
20 км 1/0
[Ac trans]
-19.5 -33.7 27 -28 -28 1004.1 987.9 -17.2
00 22.06 ЮВ 3 20 км 1/0
[Ci fib]
-20.1 -34.4 27 -27 -27 1005.3 989.1
06 22.06 ЮВ 2 20 км 4/0
[Ci fib]
-19.8 -35.7 23 -25 -25 1005.4 989.2 -23.5
12 22.06 ЮВ 5
{6}
20 км 3/0
[Ci fib]
-20.0 -32.6 32 -30 -30 1006.1 989.9
18 22.06 ЮВ 5
{7}
20 км 1/0
[Ci fib]
-18.4 -32.7 27 -28 -28 1005.5 989.4 -18.4
00 23.06 В 2 20 км ясно -20.4 -33.3 31 -25 -25 1004.2 988.0
06 23.06 Ю 5
{6}
20 км ясно -16.7 -33.6 22 -26 -26 1000.8 985.3 -23.0
12 23.06 Ю 4
{6}
20 км 6/0
[Ac trans Ci fib]
-15.0 -33.6 19 -23 -23 998.0 982.2

 

Местоположение метеостанции Novolazarevskaja (Антарктида): широта -70.77 долгота 11.83 высота над уровнем моря 122 м.

В архиве по умолчанию представлена погода в Novolazarevskaja за последнюю неделю. Архивные данные за месяц целиком и за предыдущие месяцы, начиная с января 2011 года, Вы можете получить, выбрав интересующий диапазон дат из раскрывающегося списка и нажав кнопку "Ввод!".


*Определитесь, кто Вы:
робот инопланетянин человек

Внимание! Время в таблицах - всемирное. Для получения местного времени необходимо прибавить поправку, которая в Novolazarevskaja равна 0 ч.

Смотрите также архив погоды в соседних городах и на ближайших метеорологических станциях:

Погода в Maitri (Антарктида) (3 км)
Погода в Troll (Антарктида) (362 км)
Погода в SANAE (Антарктида) (532 км)
Погода в Kohnen Ep9 (Антарктида) (607 км)
Погода в Neumayer Station (Антарктида) (734 км)
Погода в Soerasen (Антарктида) (787 км)
Погода в Nordenskiold Base (Антарктида) (899 км)
Погода в Syowa (Антарктида) (1070 км)
Погода в Relay Station (Антарктида) (1096 км)
Погода в Halley (Антарктида) (1318 км)

Пояснения к столбцам:

Ветер - указаны скорость ветра в м/с - средняя за 10 мин, порывы в срок и между сроками (в фигурных скобках) и направление, откуда дует ветер: С - северный, СВ - северо-восточный, В - восточный, ЮВ - юго-восточный, Ю - южный, ЮЗ - юго-западный, З - западный, СЗ - северо-западный.
Видимость - горизонтальная дальность видимости в метрах или километрах. При видимости от 1 до 10 км при отсутствии осадков обычно наблюдается дымка, при ухудшении видимости до 1 км и менее - туман. В сухую погоду видимость может ухудшаться дымом, пылью или мглою.
Явления - указаны атмосферные явления, наблюдавшиеся в срок или в последний час перед сроком; фигурными скобками обозначены явления, наблюдавшиеся между сроками (за 1-3 часа до срока); квадратными скобками обозначены град или гололедные отложения с указанием их диаметра в мм.
Облачность - указаны через наклонную черту общая и нижняя облачность в баллах и высота нижней границы облаков в метрах; квадратными скобками обозначены формы облаков: Ci - перистые, Cs - перисто-слоистые, Cc - перисто-кучевые, Ac - высококучевые, As - высокослоистые, Sc - слоисто-кучевые, Ns - слоисто-дождевые, Cu - кучевые, Cb - кучево-дождевые. Подробнее классификацию облаков см. в Атласе облаков (PDF).
T - Температура воздуха - температура, измеренная на высоте 2 м над землей.
Td - Температура точки росы - температура, при понижении до которой содержащийся в воздухе водяной пар достигнет насыщения.
f - Относительная влажность воздуха - влажноcть воздуха, измеренная на высоте 2 м над землей.
Te - Эффективная температура - температура, которую ощущает одетый по сезону человек в тени. Характеристика душности погоды. При расчете учитывается влияние влажности воздуха и скорости ветра на теплоощущения человека.
Tes - Эффективная температура на солнце - температура, которую ощущает человек, с поправкой на солнечный нагрев. Характеристика знойности погоды. Зависит от высоты солнца над горизонтом, облачности и скорости ветра. Ночью, в пасмурную погоду, а также при ветре 12 м/с и более поправка равна нулю.
P - Атмосферное давление - приведенное к уровню моря атмосферное давление.
Po - Атмосферное давление - измеренное на уровне метеостанции атмосферное давление.
Tmin - Минимальная температура - минимум температуры воздуха на высоте 2 м над землей.
Tmax - Максимальная температура - максимум температуры воздуха на высоте 2 м над землей.
R - Количество осадков - Количество выпавших осадков за период времени, мм. При наведении курсора мыши на число - период времени, за который выпало указанное количество осадков.
R24 - Количество осадков - Количество выпавших осадков за 24 часа, мм.
S - Снежный покров - Высота снежного покрова, см. При наведении курсора мыши на число - состояние снежного покрова и степень покрытия местности в баллах.